,,,PA_Meas_PMT16A,,PR_Meas_QMR101_102,,RH_Meas_QMH101,,SR_Meas_QMS101,,TA_Meas_QMH101,,GenWind,,GenWind,
date,time,status,PA,status,PR,status,RH,status,SR,status,TA,status,DirAvg,status,SpdAvg,
2011-02-21, 00:00:04,VALID,1000.94,VALID,0,VALID,89.9837,VALID,0,VALID,23.0573,VALID,75,VALID,0.422656,
2011-02-21, 00:01:04,VALID,1000.89,VALID,0,VALID,90.0753,VALID,0.112286,VALID,23.0361,VALID,75,VALID,0.35,
2011-02-21, 00:02:04,VALID,1000.89,VALID,0,VALID,90.1668,VALID,0,VALID,23.0361,VALID,118,VALID,0.666016,
2011-02-21, 00:03:04,VALID,1000.86,VALID,0,VALID,90.2203,VALID,0,VALID,23.0378,VALID,118,VALID,0.407031,
2011-02-21, 00:04:04,VALID,1000.85,VALID,0,VALID,90.2203,VALID,0,VALID,23.0183,VALID,118,VALID,0.226953,
2011-02-21, 00:05:04,VALID,1000.84,VALID,0,VALID,90.2737,VALID,0,VALID,22.9971,VALID,118,VALID,0.326172,
2011-02-21, 00:06:05,VALID,1000.83,VALID,0,VALID,90.3347,VALID,0.112286,VALID,23.0183,VALID,118,VALID,0.130078,
2011-02-21, 00:07:05,VALID,1000.82,VALID,0,VALID,90.3652,VALID,0,VALID,22.9793,VALID,118,VALID,0.15625,
2011-02-21, 00:08:05,VALID,1000.8,VALID,0,VALID,90.4034,VALID,0,VALID,22.9385,VALID,118,VALID,0.410937,
2011-02-21, 00:09:05,VALID,1000.78,VALID,0,VALID,90.411,VALID,0,VALID,22.919,VALID,102,VALID,0.458203,
2011-02-21, 00:10:05,VALID,1000.78,VALID,0,VALID,90.4415,VALID,0,VALID,22.8995,VALID,102,VALID,0.502344,
2011-02-21, 00:11:05,VALID,1000.74,VALID,0,VALID,90.5178,VALID,0,VALID,22.88,VALID,30,VALID,0.690234,
2011-02-21, 00:12:05,VALID,1000.71,VALID,0,VALID,90.5636,VALID,0,VALID,22.8818,VALID,19,VALID,0.791797,
2011-02-21, 00:13:05,VALID,1000.72,VALID,0,VALID,90.5788,VALID,0,VALID,22.8835,VALID,19,VALID,0.640234,
2011-02-21, 00:14:05,VALID,1000.73,VALID,0,VALID,90.6246,VALID,0,VALID,22.8623,VALID,20,VALID,0.581641,
2011-02-21, 00:15:05,VALID,1000.7,VALID,0,VALID,90.7085,VALID,0,VALID,22.8835,VALID,21,VALID,0.682031,
2011-02-21, 00:16:05,VALID,1000.7,VALID,0,VALID,90.7009,VALID,0,VALID,22.8835,VALID,40,VALID,0.632031,
2011-02-21, 00:17:05,VALID,1000.68,VALID,0,VALID,90.6551,VALID,0,VALID,22.8835,VALID,40,VALID,0.693359,
2011-02-21, 00:18:05,VALID,1000.68,VALID,0,VALID,90.6017,VALID,0,VALID,22.8623,VALID,40,VALID,0.59375,
2011-02-21, 00:19:05,VALID,1000.65,VALID,0,VALID,90.5865,VALID,0,VALID,22.8427,VALID,40,VALID,0.710547,
2011-02-21, 00:20:05,VALID,1000.66,VALID,0,VALID,90.556,VALID,0,VALID,22.825,VALID,40,VALID,0.697656,
2011-02-21, 00:21:05,VALID,1000.62,VALID,0,VALID,90.6017,VALID,0,VALID,22.8055,VALID,23,VALID,0.767578,
2011-02-21, 00:22:05,VALID,1000.58,VALID,0,VALID,90.7085,VALID,0,VALID,22.7647,VALID,23,VALID,0.611719,
2011-02-21, 00:23:05,VALID,1000.55,VALID,0,VALID,90.8154,VALID,0,VALID,22.7257,VALID,23,VALID,0.532422,
2011-02-21, 00:24:05,VALID,1000.51,VALID,0,VALID,90.9069,VALID,0,VALID,22.6867,VALID,23,VALID,0.494531,
2011-02-21, 00:25:05,VALID,1000.51,VALID,0,VALID,91.0366,VALID,0,VALID,22.6672,VALID,23,VALID,0.474219,
2011-02-21, 00:26:05,VALID,1000.5,VALID,0,VALID,91.1892,VALID,0,VALID,22.7079,VALID,23,VALID,0.476953,
2011-02-21, 00:27:05,VALID,1000.48,VALID,0,VALID,91.296,VALID,0,VALID,22.6672,VALID,23,VALID,0.411719,
2011-02-21, 00:28:05,VALID,1000.51,VALID,0,VALID,91.4181,VALID,0,VALID,22.7062,VALID,23,VALID,0.422266,
2011-02-21, 00:29:05,VALID,1000.46,VALID,0,VALID,91.5402,VALID,0,VALID,22.685,VALID,23,VALID,0.447656,
2011-02-21, 00:30:05,VALID,1000.48,VALID,0,VALID,91.6317,VALID,0,VALID,22.724,VALID,23,VALID,0.504687,
2011-02-21, 00:31:05,VALID,1000.47,VALID,0,VALID,91.7233,VALID,0.112286,VALID,22.7452,VALID,23,VALID,0.448047,
2011-02-21, 00:32:05,VALID,1000.45,VALID,0,VALID,91.7538,VALID,0.112286,VALID,22.7452,VALID,23,VALID,0.343359,
2011-02-21, 00:33:05,VALID,1000.44,VALID,0,VALID,91.792,VALID,0.112286,VALID,22.7452,VALID,23,VALID,0.246875,
2011-02-21, 00:34:05,VALID,1000.42,VALID,0,VALID,91.8454,VALID,0,VALID,22.7452,VALID,23,VALID,0.144531,
2011-02-21, 00:35:05,VALID,1000.41,VALID,0,VALID,91.8454,VALID,0,VALID,22.7452,VALID,23,VALID,0.0808594,
2011-02-21, 00:36:05,VALID,1000.4,VALID,0,VALID,91.8377,VALID,0,VALID,22.7045,VALID,23,VALID,0.0289063,
2011-02-21, 00:37:05,VALID,1000.44,VALID,0,VALID,91.8683,VALID,0,VALID,22.685,VALID,23,VALID,0,
2011-02-21, 00:38:05,VALID,1000.43,VALID,0,VALID,91.9064,VALID,0,VALID,22.7257,VALID,23,VALID,0.153125,
2011-02-21, 00:39:05,VALID,1000.47,VALID,0,VALID,91.9369,VALID,0.112286,VALID,22.685,VALID,23,VALID,0.196875,
2011-02-21, 00:40:05,VALID,1000.45,VALID,0,VALID,91.9522,VALID,0,VALID,22.7045,VALID,35,VALID,0.488672,
2011-02-21, 00:41:05,VALID,1000.5,VALID,0,VALID,91.9751,VALID,0,VALID,22.7257,VALID,41,VALID,0.410547,
2011-02-21, 00:42:05,VALID,1000.5,VALID,0,VALID,91.9522,VALID,0,VALID,22.7257,VALID,41,VALID,0.298438,
2011-02-21, 00:43:05,VALID,1000.48,VALID,0,VALID,91.9064,VALID,0,VALID,22.7257,VALID,41,VALID,0.242969,
2011-02-21, 00:44:05,VALID,1000.49,VALID,0,VALID,91.853,VALID,0,VALID,22.7257,VALID,111,VALID,0.472656,
2011-02-21, 00:45:05,VALID,1000.45,VALID,0,VALID,91.7843,VALID,0,VALID,22.724,VALID,112,VALID,0.544922,
2011-02-21, 00:46:05,VALID,1000.46,VALID,0,VALID,91.6928,VALID,0,VALID,22.7842,VALID,112,VALID,0.488672,
2011-02-21, 00:47:05,VALID,1000.43,VALID,0,VALID,91.5707,VALID,0,VALID,22.7842,VALID,112,VALID,0.436719,
2011-02-21, 00:48:05,VALID,1000.42,VALID,0,VALID,91.4563,VALID,0,VALID,22.8232,VALID,112,VALID,0.336719,
2011-02-21, 00:49:05,VALID,1000.4,VALID,0,VALID,91.3113,VALID,0,VALID,22.802,VALID,112,VALID,0.387109,
2011-02-21, 00:50:05,VALID,1000.38,VALID,0,VALID,91.1663,VALID,0.112286,VALID,22.8215,VALID,112,VALID,0.439063,
2011-02-21, 00:51:05,VALID,1000.36,VALID,0,VALID,90.9832,VALID,0,VALID,22.8215,VALID,112,VALID,0.275781,
2011-02-21, 00:52:05,VALID,1000.33,VALID,0,VALID,90.7849,VALID,0.112286,VALID,22.8623,VALID,112,VALID,0.290625,
2011-02-21, 00:53:05,VALID,1000.34,VALID,0,VALID,90.6094,VALID,0,VALID,22.8818,VALID,112,VALID,0,
2011-02-21, 00:54:05,VALID,1000.33,VALID,0,VALID,90.4797,VALID,0,VALID,22.8818,VALID,112,VALID,0.619531,
2011-02-21, 00:55:05,VALID,1000.28,VALID,0,VALID,90.3347,VALID,0,VALID,22.9013,VALID,112,VALID,0.436719,
2011-02-21, 00:56:05,VALID,1000.29,VALID,0,VALID,90.2431,VALID,0,VALID,22.9208,VALID,112,VALID,0.578125,
2011-02-21, 00:57:05,VALID,1000.31,VALID,0,VALID,90.0753,VALID,0,VALID,22.9403,VALID,112,VALID,0.710547,
2011-02-21, 00:58:05,VALID,1000.26,VALID,0,VALID,89.8922,VALID,0,VALID,22.919,VALID,112,VALID,0.676172,
2011-02-21, 00:59:05,VALID,1000.24,VALID,0,VALID,89.9532,VALID,0,VALID,22.9385,VALID,112,VALID,0.534766,
2011-02-21, 01:00:05,VALID,1000.24,VALID,0,VALID,89.938,VALID,0,VALID,22.9385,VALID,112,VALID,0.724219,
2011-02-21, 01:01:05,VALID,1000.19,VALID,0,VALID,89.938,VALID,0,VALID,22.919,VALID,112,VALID,0.692578,
2011-02-21, 01:02:05,VALID,1000.19,VALID,0,VALID,89.9685,VALID,0,VALID,22.9208,VALID,112,VALID,0.730078,
2011-02-21, 01:03:05,VALID,1000.12,VALID,0,VALID,90.0448,VALID,0,VALID,22.8995,VALID,112,VALID,0.719531,
2011-02-21, 01:04:05,VALID,1000.13,VALID,0,VALID,90.1516,VALID,0,VALID,22.9013,VALID,112,VALID,0.541797,
2011-02-21, 01:05:05,VALID,1000.08,VALID,0,VALID,90.2508,VALID,0.112286,VALID,22.9013,VALID,112,VALID,0.467969,
2011-02-21, 01:06:05,VALID,1000.11,VALID,0,VALID,90.3347,VALID,0,VALID,22.8818,VALID,112,VALID,0.386328,
2011-02-21, 01:07:05,VALID,1000.12,VALID,0,VALID,90.3805,VALID,0,VALID,22.8818,VALID,111,VALID,0.489453,
2011-02-21, 01:08:05,VALID,1000.11,VALID,0,VALID,90.3576,VALID,0,VALID,22.841,VALID,110,VALID,0.558594,
2011-02-21, 01:09:05,VALID,1000.09,VALID,0,VALID,90.2966,VALID,0.112286,VALID,22.8427,VALID,110,VALID,0.607031,
2011-02-21, 01:10:05,VALID,1000.09,VALID,0,VALID,90.3576,VALID,0,VALID,22.8427,VALID,110,VALID,0.573047,
2011-02-21, 01:11:05,VALID,1000.06,VALID,0,VALID,90.3347,VALID,0,VALID,22.8427,VALID,110,VALID,0.469141,
2011-02-21, 01:12:05,VALID,1000.04,VALID,0,VALID,90.3194,VALID,0,VALID,22.8215,VALID,110,VALID,0.651953,
2011-02-21, 01:13:05,VALID,1000.01,VALID,0,VALID,90.2508,VALID,0,VALID,22.8427,VALID,110,VALID,0.595312,
2011-02-21, 01:14:05,VALID,1000.01,VALID,0,VALID,90.1668,VALID,0,VALID,22.8232,VALID,110,VALID,0.714453,
2011-02-21, 01:15:05,VALID,1000.03,VALID,0,VALID,90.1287,VALID,0,VALID,22.8037,VALID,110,VALID,0.744141,
2011-02-21, 01:16:05,VALID,999.993,VALID,0,VALID,90.3118,VALID,0,VALID,22.8215,VALID,105,VALID,0.682813,
2011-02-21, 01:17:05,VALID,999.977,VALID,0,VALID,90.4491,VALID,0,VALID,22.8623,VALID,68,VALID,0.774219,
2011-02-21, 01:18:05,VALID,999.984,VALID,0,VALID,90.556,VALID,0,VALID,22.8623,VALID,66,VALID,0.820703,
2011-02-21, 01:19:05,VALID,999.979,VALID,0,VALID,90.6399,VALID,0,VALID,22.9013,VALID,50,VALID,0.850781,
2011-02-21, 01:20:05,VALID,999.98,VALID,0,VALID,90.6399,VALID,0,VALID,22.8818,VALID,50,VALID,0.957812,
2011-02-21, 01:21:05,VALID,999.972,VALID,0,VALID,90.6246,VALID,0,VALID,22.8427,VALID,38,VALID,0.898438,
2011-02-21, 01:22:05,VALID,999.943,VALID,0,VALID,90.7391,VALID,0,VALID,22.8232,VALID,38,VALID,0.871484,
2011-02-21, 01:23:05,VALID,999.93,VALID,0,VALID,90.8611,VALID,0,VALID,22.7825,VALID,38,VALID,0.791797,
2011-02-21, 01:24:05,VALID,999.937,VALID,0,VALID,90.8764,VALID,0,VALID,22.7452,VALID,38,VALID,0.739062,
2011-02-21, 01:25:05,VALID,999.925,VALID,0,VALID,90.9069,VALID,0,VALID,22.7062,VALID,37,VALID,0.796875,
2011-02-21, 01:26:05,VALID,999.915,VALID,0,VALID,90.9756,VALID,0,VALID,22.6477,VALID,37,VALID,0.867188,
2011-02-21, 01:27:05,VALID,999.908,VALID,0,VALID,91.09,VALID,0,VALID,22.6282,VALID,37,VALID,1.01406,
2011-02-21, 01:28:05,VALID,999.901,VALID,0,VALID,91.2503,VALID,0,VALID,22.6282,VALID,37,VALID,1.02109,
2011-02-21, 01:29:05,VALID,999.899,VALID,0,VALID,91.4334,VALID,0.112286,VALID,22.6477,VALID,37,VALID,0.907422,
2011-02-21, 01:30:05,VALID,999.873,VALID,0,VALID,91.5173,VALID,0,VALID,22.6282,VALID,37,VALID,0.851563,
2011-02-21, 01:31:05,VALID,999.854,VALID,0,VALID,91.5554,VALID,0.112286,VALID,22.6282,VALID,37,VALID,0.714063,
2011-02-21, 01:32:05,VALID,999.851,VALID,0,VALID,91.6088,VALID,0,VALID,22.6477,VALID,37,VALID,0.569141,
2011-02-21, 01:33:05,VALID,999.849,VALID,0,VALID,91.6394,VALID,0,VALID,22.6477,VALID,37,VALID,0.350781,
2011-02-21, 01:34:05,VALID,999.829,VALID,0,VALID,91.6012,VALID,0,VALID,22.6477,VALID,37,VALID,0.084375,
2011-02-21, 01:35:05,VALID,999.816,VALID,0,VALID,91.5707,VALID,0,VALID,22.6477,VALID,37,VALID,0.128516,
2011-02-21, 01:36:05,VALID,999.829,VALID,0,VALID,91.5478,VALID,0,VALID,22.6477,VALID,37,VALID,0,
2011-02-21, 01:37:05,VALID,999.83,VALID,0,VALID,91.4944,VALID,0,VALID,22.6282,VALID,37,VALID,0,
2011-02-21, 01:38:05,VALID,999.821,VALID,0,VALID,91.4257,VALID,0,VALID,22.6282,VALID,37,VALID,0,
2011-02-21, 01:39:05,VALID,999.83,VALID,0,VALID,91.3723,VALID,0,VALID,22.6087,VALID,37,VALID,0,
2011-02-21, 01:40:05,VALID,999.809,VALID,0,VALID,91.3952,VALID,0,VALID,22.5892,VALID,37,VALID,0,
2011-02-21, 01:41:05,VALID,999.782,VALID,0,VALID,91.3952,VALID,0,VALID,22.5874,VALID,37,VALID,0,
2011-02-21, 01:42:05,VALID,999.746,VALID,0,VALID,91.38,VALID,0.112286,VALID,22.5892,VALID,37,VALID,0,
2011-02-21, 01:43:05,VALID,999.719,VALID,0,VALID,91.4028,VALID,0,VALID,22.5714,VALID,37,VALID,0,
2011-02-21, 01:44:05,VALID,999.692,VALID,0,VALID,91.4105,VALID,0,VALID,22.5714,VALID,37,VALID,0,
2011-02-21, 01:45:05,VALID,999.669,VALID,0,VALID,91.4944,VALID,0,VALID,22.5696,VALID,37,VALID,0,
2011-02-21, 01:46:05,VALID,999.656,VALID,0,VALID,91.5707,VALID,0,VALID,22.5909,VALID,37,VALID,0,
2011-02-21, 01:47:05,VALID,999.656,VALID,0,VALID,91.6623,VALID,0,VALID,22.6104,VALID,37,VALID,0,
2011-02-21, 01:48:05,VALID,999.657,VALID,0,VALID,91.708,VALID,0,VALID,22.6104,VALID,37,VALID,0.0558594,
2011-02-21, 01:49:05,VALID,999.639,VALID,0,VALID,91.7309,VALID,0,VALID,22.5892,VALID,37,VALID,0.333203,
2011-02-21, 01:50:05,VALID,999.63,VALID,0,VALID,91.792,VALID,0,VALID,22.6282,VALID,37,VALID,0.391406,
2011-02-21, 01:51:05,VALID,999.641,VALID,0,VALID,91.8072,VALID,0,VALID,22.6689,VALID,70,VALID,0.518359,
2011-02-21, 01:52:05,VALID,999.627,VALID,0,VALID,91.8301,VALID,0,VALID,22.6672,VALID,70,VALID,0.45,
2011-02-21, 01:53:05,VALID,999.625,VALID,0,VALID,91.8377,VALID,0,VALID,22.6867,VALID,72,VALID,0.563672,
2011-02-21, 01:54:05,VALID,999.625,VALID,0,VALID,91.8377,VALID,0,VALID,22.7469,VALID,72,VALID,0.485938,
2011-02-21, 01:55:05,VALID,999.598,VALID,0,VALID,91.8225,VALID,0,VALID,22.7664,VALID,71,VALID,0.537891,
2011-02-21, 01:56:05,VALID,999.618,VALID,0,VALID,91.8072,VALID,0,VALID,22.7664,VALID,71,VALID,0.503125,
2011-02-21, 01:57:05,VALID,999.569,VALID,0,VALID,91.7462,VALID,0,VALID,22.7647,VALID,71,VALID,0.426562,
2011-02-21, 01:58:05,VALID,999.578,VALID,0,VALID,91.6928,VALID,0.112286,VALID,22.7842,VALID,71,VALID,0.452344,
2011-02-21, 01:59:05,VALID,999.54,VALID,0,VALID,91.6241,VALID,0.112286,VALID,22.7647,VALID,71,VALID,0.575391,
2011-02-21, 02:00:05,VALID,999.575,VALID,0,VALID,91.5783,VALID,0,VALID,22.7435,VALID,71,VALID,0.441016,
2011-02-21, 02:01:05,VALID,999.587,VALID,0,VALID,91.5097,VALID,0,VALID,22.724,VALID,71,VALID,0.409375,
2011-02-21, 02:02:05,VALID,999.575,VALID,0,VALID,91.4715,VALID,0,VALID,22.7257,VALID,71,VALID,0.335547,
2011-02-21, 02:03:05,VALID,999.578,VALID,0,VALID,91.5097,VALID,0.112286,VALID,22.7062,VALID,71,VALID,0.128125,
2011-02-21, 02:04:05,VALID,999.581,VALID,0,VALID,91.5554,VALID,0,VALID,22.7062,VALID,71,VALID,0,
2011-02-21, 02:05:05,VALID,999.56,VALID,0,VALID,91.5936,VALID,0,VALID,22.7062,VALID,71,VALID,0,
2011-02-21, 02:06:05,VALID,999.563,VALID,0,VALID,91.6241,VALID,0,VALID,22.6867,VALID,71,VALID,0,
2011-02-21, 02:07:05,VALID,999.558,VALID,0,VALID,91.6775,VALID,0,VALID,22.6867,VALID,71,VALID,0,
2011-02-21, 02:08:05,VALID,999.525,VALID,0,VALID,91.7233,VALID,0,VALID,22.6867,VALID,71,VALID,0,
2011-02-21, 02:09:05,VALID,999.498,VALID,0,VALID,91.7691,VALID,0,VALID,22.6655,VALID,71,VALID,0,
2011-02-21, 02:10:05,VALID,999.492,VALID,0,VALID,91.7996,VALID,0,VALID,22.6867,VALID,71,VALID,0,
2011-02-21, 02:11:05,VALID,999.5,VALID,0,VALID,91.8606,VALID,0,VALID,22.6867,VALID,71,VALID,0,
2011-02-21, 02:12:05,VALID,999.481,VALID,0,VALID,91.8988,VALID,0,VALID,22.7062,VALID,71,VALID,0,
2011-02-21, 02:13:05,VALID,999.472,VALID,0,VALID,91.9293,VALID,0,VALID,22.685,VALID,71,VALID,0.00859375,
2011-02-21, 02:14:05,VALID,999.494,VALID,0,VALID,91.9751,VALID,0,VALID,22.6655,VALID,71,VALID,0.0191406,
2011-02-21, 02:15:05,VALID,999.459,VALID,0,VALID,91.9903,VALID,0,VALID,22.6867,VALID,71,VALID,0,
2011-02-21, 02:16:05,VALID,999.477,VALID,0,VALID,92.0132,VALID,0,VALID,22.6655,VALID,71,VALID,0,
2011-02-21, 02:17:05,VALID,999.468,VALID,0,VALID,92.0437,VALID,0,VALID,22.6672,VALID,71,VALID,0,
2011-02-21, 02:18:05,VALID,999.465,VALID,0,VALID,92.0819,VALID,0,VALID,22.646,VALID,71,VALID,0,
2011-02-21, 02:19:05,VALID,999.442,VALID,0,VALID,92.1353,VALID,0.112286,VALID,22.6672,VALID,71,VALID,0,
2011-02-21, 02:20:05,VALID,999.438,VALID,0,VALID,92.1811,VALID,0,VALID,22.6672,VALID,71,VALID,0,
2011-02-21, 02:21:05,VALID,999.421,VALID,0,VALID,92.2192,VALID,0.112286,VALID,22.6655,VALID,71,VALID,0,
2011-02-21, 02:22:05,VALID,999.414,VALID,0,VALID,92.2574,VALID,0,VALID,22.646,VALID,71,VALID,0,
2011-02-21, 02:23:05,VALID,999.363,VALID,0,VALID,92.2879,VALID,0.112286,VALID,22.646,VALID,71,VALID,0.414453,
2011-02-21, 02:24:05,VALID,999.382,VALID,0,VALID,92.2955,VALID,0,VALID,22.6655,VALID,71,VALID,0.402734,
2011-02-21, 02:25:05,VALID,999.353,VALID,0,VALID,92.3031,VALID,0,VALID,22.685,VALID,71,VALID,0.378516,
2011-02-21, 02:26:05,VALID,999.325,VALID,0,VALID,92.3337,VALID,0,VALID,22.7062,VALID,71,VALID,0.424609,
2011-02-21, 02:27:05,VALID,999.319,VALID,0,VALID,92.3489,VALID,0.112286,VALID,22.7045,VALID,71,VALID,0.511719,
2011-02-21, 02:28:05,VALID,999.318,VALID,0,VALID,92.3642,VALID,0,VALID,22.7062,VALID,71,VALID,0.5125,
2011-02-21, 02:29:05,VALID,999.319,VALID,0,VALID,92.3489,VALID,0,VALID,22.7062,VALID,71,VALID,0.675,
2011-02-21, 02:30:05,VALID,999.299,VALID,0,VALID,92.3108,VALID,0,VALID,22.6867,VALID,71,VALID,0.702344,
2011-02-21, 02:31:05,VALID,999.333,VALID,0,VALID,92.2726,VALID,0,VALID,22.6867,VALID,67,VALID,0.791797,
2011-02-21, 02:32:05,VALID,999.289,VALID,0,VALID,92.2803,VALID,0,VALID,22.7079,VALID,67,VALID,0.799219,
2011-02-21, 02:33:05,VALID,999.277,VALID,0,VALID,92.2497,VALID,0,VALID,22.7079,VALID,67,VALID,0.637109,
2011-02-21, 02:34:05,VALID,999.273,VALID,0,VALID,92.2574,VALID,0,VALID,22.6884,VALID,67,VALID,0.466406,
2011-02-21, 02:35:05,VALID,999.249,VALID,0,VALID,92.204,VALID,0,VALID,22.6884,VALID,67,VALID,0.271094,
2011-02-21, 02:36:05,VALID,999.223,VALID,0,VALID,92.1887,VALID,0,VALID,22.6884,VALID,67,VALID,0.101953,
2011-02-21, 02:37:05,VALID,999.217,VALID,0,VALID,92.1811,VALID,0,VALID,22.6477,VALID,67,VALID,0,
2011-02-21, 02:38:05,VALID,999.237,VALID,0,VALID,92.1734,VALID,0,VALID,22.6282,VALID,67,VALID,0,
2011-02-21, 02:39:05,VALID,999.222,VALID,0,VALID,92.1353,VALID,0,VALID,22.6087,VALID,67,VALID,0,
2011-02-21, 02:40:05,VALID,999.215,VALID,0,VALID,92.1353,VALID,0,VALID,22.6104,VALID,67,VALID,0,
2011-02-21, 02:41:05,VALID,999.213,VALID,0,VALID,92.1353,VALID,0,VALID,22.6104,VALID,67,VALID,0,
2011-02-21, 02:42:05,VALID,999.192,VALID,0,VALID,92.1582,VALID,0,VALID,22.5892,VALID,67,VALID,0,
2011-02-21, 02:43:05,VALID,999.191,VALID,0,VALID,92.1963,VALID,0,VALID,22.6104,VALID,67,VALID,0,
2011-02-21, 02:44:05,VALID,999.192,VALID,0,VALID,92.2116,VALID,0,VALID,22.6087,VALID,67,VALID,0,
2011-02-21, 02:45:05,VALID,999.194,VALID,0,VALID,92.2421,VALID,0,VALID,22.6299,VALID,67,VALID,0,
2011-02-21, 02:46:05,VALID,999.168,VALID,0,VALID,92.2574,VALID,0,VALID,22.6494,VALID,67,VALID,0,
2011-02-21, 02:47:05,VALID,999.177,VALID,0,VALID,92.2955,VALID,0,VALID,22.6672,VALID,67,VALID,0.334766,
2011-02-21, 02:48:05,VALID,999.185,VALID,0,VALID,92.3337,VALID,0,VALID,22.7079,VALID,67,VALID,0.256641,
2011-02-21, 02:49:04,VALID,999.177,VALID,0,VALID,92.3642,VALID,0,VALID,22.7062,VALID,67,VALID,0.0453125,
2011-02-21, 02:50:04,VALID,999.18,VALID,0,VALID,92.3718,VALID,0,VALID,22.7062,VALID,67,VALID,0,
2011-02-21, 02:51:04,VALID,999.23,VALID,0,VALID,92.4176,VALID,0,VALID,22.7274,VALID,67,VALID,0.00117188,
2011-02-21, 02:52:04,VALID,999.214,VALID,0,VALID,92.4252,VALID,0,VALID,22.7257,VALID,67,VALID,0.30625,
2011-02-21, 02:53:04,VALID,999.216,VALID,0,VALID,92.4405,VALID,0,VALID,22.7257,VALID,67,VALID,0.473437,
2011-02-21, 02:54:04,VALID,999.221,VALID,0,VALID,92.4634,VALID,0,VALID,22.7452,VALID,77,VALID,0.549609,
2011-02-21, 02:55:04,VALID,999.203,VALID,0,VALID,92.4863,VALID,0,VALID,22.7647,VALID,77,VALID,0.666406,
2011-02-21, 02:56:04,VALID,999.189,VALID,0,VALID,92.4634,VALID,0,VALID,22.8055,VALID,77,VALID,0.615234,
2011-02-21, 02:57:04,VALID,999.198,VALID,0,VALID,92.471,VALID,0,VALID,22.8037,VALID,103,VALID,0.724609,
2011-02-21, 02:58:04,VALID,999.22,VALID,0,VALID,92.4481,VALID,0,VALID,22.8232,VALID,103,VALID,0.502734,
2011-02-21, 02:59:04,VALID,999.226,VALID,0,VALID,92.4176,VALID,0,VALID,22.8623,VALID,112,VALID,0.521875,
2011-02-21, 03:00:04,VALID,999.213,VALID,0,VALID,92.3642,VALID,0,VALID,22.903,VALID,112,VALID,0.812109,
2011-02-21, 03:01:04,VALID,999.221,VALID,0,VALID,92.2879,VALID,0,VALID,22.9208,VALID,112,VALID,0.572656,
2011-02-21, 03:02:04,VALID,999.209,VALID,0,VALID,92.2192,VALID,0,VALID,22.9208,VALID,112,VALID,0.587891,
2011-02-21, 03:03:04,VALID,999.234,VALID,0,VALID,92.1277,VALID,0,VALID,22.9811,VALID,112,VALID,0.208594,
2011-02-21, 03:04:04,VALID,999.251,VALID,0,VALID,92.0132,VALID,0,VALID,22.9793,VALID,112,VALID,0.278125,
2011-02-21, 03:05:04,VALID,999.254,VALID,0,VALID,91.8759,VALID,0,VALID,23.0006,VALID,112,VALID,0.298438,
2011-02-21, 03:06:04,VALID,999.236,VALID,0,VALID,91.7385,VALID,0,VALID,23.0201,VALID,112,VALID,0.307813,
2011-02-21, 03:07:04,VALID,999.234,VALID,0,VALID,91.647,VALID,0,VALID,23.0201,VALID,112,VALID,0.00546875,
2011-02-21, 03:08:04,VALID,999.241,VALID,0,VALID,91.5097,VALID,0,VALID,23.0201,VALID,112,VALID,0,
2011-02-21, 03:09:04,VALID,999.251,VALID,0,VALID,91.4181,VALID,0,VALID,23.0396,VALID,112,VALID,0,
2011-02-21, 03:10:04,VALID,999.277,VALID,0,VALID,91.3189,VALID,0,VALID,23.0396,VALID,112,VALID,0.123047,
2011-02-21, 03:11:04,VALID,999.266,VALID,0,VALID,91.2731,VALID,0,VALID,23.0396,VALID,130,VALID,0.639844,
2011-02-21, 03:12:04,VALID,999.293,VALID,0,VALID,91.1663,VALID,0,VALID,23.0591,VALID,130,VALID,0.178516,
2011-02-21, 03:13:04,VALID,999.332,VALID,0,VALID,91.1053,VALID,0,VALID,23.0556,VALID,128,VALID,0.322266,
2011-02-21, 03:14:04,VALID,999.331,VALID,0,VALID,91.0443,VALID,0,VALID,23.0769,VALID,128,VALID,0.636328,
2011-02-21, 03:15:04,VALID,999.348,VALID,0,VALID,90.9909,VALID,0,VALID,23.0769,VALID,126,VALID,0.520312,
2011-02-21, 03:16:04,VALID,999.357,VALID,0,VALID,90.9603,VALID,0,VALID,23.0964,VALID,126,VALID,0.530859,
2011-02-21, 03:17:04,VALID,999.369,VALID,0,VALID,90.884,VALID,0,VALID,23.0556,VALID,126,VALID,0.778906,
2011-02-21, 03:18:04,VALID,999.412,VALID,0,VALID,90.8001,VALID,0,VALID,23.0964,VALID,126,VALID,0.769922,
2011-02-21, 03:19:04,VALID,999.424,VALID,0,VALID,90.7314,VALID,0,VALID,23.1159,VALID,126,VALID,0.738281,
2011-02-21, 03:20:04,VALID,999.442,VALID,0,VALID,90.6323,VALID,0,VALID,23.0946,VALID,126,VALID,0.614844,
2011-02-21, 03:21:04,VALID,999.486,VALID,0,VALID,90.5483,VALID,0,VALID,23.0946,VALID,126,VALID,0.417188,
2011-02-21, 03:22:04,VALID,999.492,VALID,0,VALID,90.4949,VALID,0,VALID,23.0946,VALID,126,VALID,0.367969,
2011-02-21, 03:23:04,VALID,999.523,VALID,0,VALID,90.4644,VALID,0,VALID,23.1159,VALID,126,VALID,0.236719,
2011-02-21, 03:24:04,VALID,999.523,VALID,0,VALID,90.472,VALID,0,VALID,23.1141,VALID,126,VALID,0.235547,
2011-02-21, 03:25:04,VALID,999.532,VALID,0,VALID,90.5026,VALID,0,VALID,23.1159,VALID,126,VALID,0.26875,
2011-02-21, 03:26:04,VALID,999.565,VALID,0,VALID,90.5102,VALID,0,VALID,23.1354,VALID,126,VALID,0.394922,
2011-02-21, 03:27:04,VALID,999.559,VALID,0,VALID,90.4797,VALID,0,VALID,23.1354,VALID,126,VALID,0.342578,
2011-02-21, 03:28:04,VALID,999.586,VALID,0,VALID,90.4644,VALID,0,VALID,23.1566,VALID,126,VALID,0.294922,
2011-02-21, 03:29:04,VALID,999.606,VALID,0,VALID,90.3881,VALID,0,VALID,23.1549,VALID,126,VALID,0.219141,
2011-02-21, 03:30:04,VALID,999.587,VALID,0,VALID,90.3194,VALID,0,VALID,23.1549,VALID,126,VALID,0.319531,
2011-02-21, 03:31:04,VALID,999.604,VALID,0,VALID,90.2355,VALID,0,VALID,23.1744,VALID,126,VALID,0.256641,
2011-02-21, 03:32:04,VALID,999.611,VALID,0,VALID,90.1516,VALID,0,VALID,23.1744,VALID,126,VALID,0.208203,
2011-02-21, 03:33:04,VALID,999.623,VALID,0,VALID,90.0982,VALID,0,VALID,23.1939,VALID,126,VALID,0.0183594,
2011-02-21, 03:34:04,VALID,999.626,VALID,0,VALID,90.0143,VALID,0,VALID,23.2347,VALID,126,VALID,0,
2011-02-21, 03:35:04,VALID,999.653,VALID,0,VALID,89.9456,VALID,0,VALID,23.1939,VALID,126,VALID,0,
2011-02-21, 03:36:04,VALID,999.625,VALID,0,VALID,89.9074,VALID,0,VALID,23.2152,VALID,126,VALID,0,
2011-02-21, 03:37:04,VALID,999.592,VALID,0,VALID,89.9074,VALID,0,VALID,23.2152,VALID,126,VALID,0,
2011-02-21, 03:38:04,VALID,999.582,VALID,0,VALID,89.8922,VALID,0,VALID,23.2134,VALID,126,VALID,0,
2011-02-21, 03:39:04,VALID,999.56,VALID,0,VALID,89.9227,VALID,0,VALID,23.2152,VALID,93,VALID,0.0808594,
2011-02-21, 03:40:04,VALID,999.53,VALID,0,VALID,89.9227,VALID,0,VALID,23.2152,VALID,93,VALID,0,
2011-02-21, 03:41:04,VALID,999.536,VALID,0,VALID,89.9456,VALID,0,VALID,23.2152,VALID,93,VALID,0.245703,
2011-02-21, 03:42:04,VALID,999.525,VALID,0,VALID,89.9837,VALID,0,VALID,23.1939,VALID,93,VALID,0.333984,
2011-02-21, 03:43:04,VALID,999.526,VALID,0,VALID,90.0448,VALID,0,VALID,23.1744,VALID,93,VALID,0.678906,
2011-02-21, 03:44:04,VALID,999.529,VALID,0,VALID,90.1211,VALID,0,VALID,23.2152,VALID,93,VALID,0.658594,
2011-02-21, 03:45:04,VALID,999.562,VALID,0,VALID,90.1592,VALID,0,VALID,23.2152,VALID,93,VALID,0.63125,
2011-02-21, 03:46:04,VALID,999.553,VALID,0,VALID,90.1363,VALID,0,VALID,23.1939,VALID,93,VALID,0.611328,
2011-02-21, 03:47:04,VALID,999.554,VALID,0,VALID,90.0753,VALID,0,VALID,23.1939,VALID,93,VALID,0.685547,